Location: Peebles
(55.6412°N, 3.1714°W)
Time: 14:58:25
(UTC+01:00)

ZHUHAI-1 OVS-02 - Pass Details

Date: 03 July 2022
Orbit: 492 x 507 km, 97.2° (Epoch: 17 August)

Event Time Altitude Azimuth Distance (km) Brightness Sun altitude
Rises 23:26:07 0° 220° (SW) 2,576 ? -8.0°
Reaches altitude 10° 23:29:32 10° 255° (WSW) 1,705 ? -8.2°
Maximum altitude 23:30:48 11° 275° (W) 1,619 ? -8.3°
Drops below altitude 10° 23:32:04 10° 295° (WNW) 1,714 ? -8.3°
Sets 23:35:32 0° 330° (NNW) 2,612 ? -8.5°
